| time (UTC) | temp F | wind direction | speed knots | gust knots | rain 1hr in | rain 24hr in | rain mn in | humidity % | barometer mb |
| 20260507003015 | 54 | 49 | 2.6 | 5.2 | 0.00 | 0.00 | 0.00 | 61 | 1010.9 |
| 20260507002015 | 54 | 57 | 2.6 | 6.1 | 0.00 | 0.00 | 0.00 | 59 | 1010.9 |
| 20260507001015 | 54 | 64 | 2.6 | 7.8 | 0.00 | 0.00 | 0.00 | 58 | 1010.9 |
| 20260507000015 | 54 | 53 | 4.3 | 8.7 | 0.00 | 0.00 | 0.00 | 57 | 1011.0 |
| 20260506235037 | 55 | 82 | 4.3 | 8.7 | 0.00 | 0.00 | 0.00 | 55 | 1011.0 |
| 20260506234057 | 56 | 52 | 4.3 | 7.8 | 0.00 | 0.00 | 0.00 | 54 | 1010.7 |
| 20260506233017 | 56 | 64 | 3.5 | 7.0 | 0.00 | 0.00 | 0.00 | 53 | 1010.5 |
| 20260506232017 | 56 | 47 | 4.3 | 7.8 | 0.00 | 0.00 | 0.00 | 52 | 1010.4 |
| 20260506231037 | 56 | 64 | 2.6 | 5.2 | 0.00 | 0.00 | 0.00 | 51 | 1010.4 |
| 20260506230017 | 56 | 49 | 3.5 | 7.8 | 0.00 | 0.00 | 0.00 | 50 | 1010.3 |
| 20260506225015 | 57 | 50 | 3.5 | 7.0 | 0.00 | 0.00 | 0.00 | 49 | 1010.4 |
| 20260506224017 | 58 | 53 | 3.5 | 7.8 | 0.00 | 0.00 | 0.00 | 48 | 1010.4 |
| 20260506223017 | 58 | 74 | 2.6 | 5.2 | 0.00 | 0.00 | 0.00 | 48 | 1010.3 |
| 20260506222017 | 58 | 75 | 3.5 | 5.2 | 0.00 | 0.00 | 0.00 | 48 | 1010.3 |
| 20260506221017 | 58 | 51 | 2.6 | 4.3 | 0.00 | 0.00 | 0.00 | 46 | 1010.1 |
| 20260506220017 | 58 | 50 | 2.6 | 3.5 | 0.00 | 0.00 | 0.00 | 46 | 1010.2 |
| 20260506215017 | 59 | 56 | 0.9 | 1.7 | 0.00 | 0.00 | 0.00 | 45 | 1010.3 |
| 20260506214017 | 59 | 56 | 0.9 | 2.6 | 0.00 | 0.00 | 0.00 | 44 | 1010.2 |
| 20260506213017 | 60 | 56 | 1.7 | 1.7 | 0.00 | 0.00 | 0.00 | 43 | 1010.3 |
| 20260506212017 | 60 | 55 | 0.9 | 1.7 | 0.00 | 0.00 | 0.00 | 42 | 1010.2 |
| 20260506211017 | 60 | 54 | 0.9 | 2.6 | 0.00 | 0.00 | 0.00 | 42 | 1010.1 |
| 20260506210017 | 59 | 68 | 0.9 | 0.9 | 0.00 | 0.00 | 0.00 | 42 | 1010.1 |
| 20260506205017 | 60 | 68 | 0.9 | 0.9 | 0.00 | 0.00 | 0.00 | 42 | 1010.0 |
| 20260506204035 | 60 | 68 | 0.0 | 0.9 | 0.00 | 0.00 | 0.00 | 40 | 1009.9 |
| 20260506203017 | 60 | 68 | 0.9 | 0.9 | 0.00 | 0.00 | 0.00 | 40 | 1009.9 |
| 20260506202015 | 61 | 68 | 0.9 | 0.9 | 0.00 | 0.00 | 0.00 | 40 | 1010.0 |
| 20260506201037 | 61 | 68 | 0.9 | 0.9 | 0.00 | 0.00 | 0.00 | 39 | 1009.8 |
| 20260506200015 | 62 | 68 | 0.0 | 0.9 | 0.00 | 0.00 | 0.00 | 38 | 1009.7 |
| 20260506195017 | 62 | 68 | 0.9 | 1.7 | 0.00 | 0.00 | 0.00 | 37 | 1009.6 |
| 20260506194017 | 63 | 68 | 0.9 | 1.7 | 0.00 | 0.00 | 0.00 | 36 | 1009.5 |
| 20260506193017 | 64 | 68 | 0.9 | 1.7 | 0.00 | 0.00 | 0.00 | 35 | 1009.7 |
| 20260506192017 | 65 | 68 | 0.9 | 1.7 | 0.00 | 0.00 | 0.00 | 34 | 1009.6 |
| 20260506191037 | 66 | 68 | 0.9 | 2.6 | 0.00 | 0.00 | 0.00 | 33 | 1009.5 |
| 20260506190018 | 67 | 73 | 1.7 | 2.6 | 0.00 | 0.00 | 0.00 | 31 | 1009.5 |
| 20260506185017 | 68 | 63 | 0.9 | 2.6 | 0.00 | 0.00 | 0.00 | 29 | 1009.7 |
| 20260506184037 | 70 | 314 | 0.0 | 1.7 | 0.00 | 0.00 | 0.00 | 28 | 1009.7 |
| 20260506183017 | 69 | 314 | 0.0 | 1.7 | 0.00 | 0.00 | 0.00 | 29 | 1009.5 |
| 20260506182017 | 69 | 313 | 0.9 | 3.5 | 0.00 | 0.00 | 0.00 | 29 | 1009.4 |
| 20260506181055 | 69 | 103 | 0.9 | 2.6 | 0.00 | 0.00 | 0.00 | 29 | 1009.4 |
| 20260506180015 | 68 | 114 | 1.7 | 4.3 | 0.00 | 0.00 | 0.00 | 30 | 1009.3 |
| 20260506175015 | 69 | 34 | 2.6 | 4.3 | 0.00 | 0.00 | 0.00 | 30 | 1009.6 |
| 20260506174015 | 69 | 51 | 1.7 | 4.3 | 0.00 | 0.00 | 0.00 | 30 | 1009.6 |
| 20260506173015 | 69 | 15 | 1.7 | 3.5 | 0.00 | 0.00 | 0.00 | 29 | 1009.7 |
| 20260506172015 | 69 | 19 | 1.7 | 4.3 | 0.00 | 0.00 | 0.00 | 29 | 1009.7 |
| 20260506171015 | 70 | 320 | 1.7 | 4.3 | 0.00 | 0.00 | 0.00 | 29 | 1009.7 |
| 20260506170015 | 70 | 270 | 1.7 | 5.2 | 0.00 | 0.00 | 0.00 | 29 | 1009.7 |
| 20260506165015 | 71 | 64 | 1.7 | 5.2 | 0.00 | 0.00 | 0.00 | 29 | 1009.9 |
| 20260506164015 | 70 | 111 | 1.7 | 4.3 | 0.00 | 0.00 | 0.00 | 30 | 1010.0 |
| 20260506163015 | 70 | 58 | 1.7 | 4.3 | 0.00 | 0.00 | 0.00 | 31 | 1010.0 |
| 20260506162055 | 69 | 15 | 1.7 | 7.0 | 0.00 | 0.00 | 0.00 | 31 | 1010.0 |
| 20260506161015 | 68 | 25 | 2.6 | 7.8 | 0.00 | 0.00 | 0.00 | 31 | 1010.0 |
| 20260506160035 | 68 | 5 | 2.6 | 6.1 | 0.00 | 0.00 | 0.00 | 31 | 1010.0 |
| 20260506155015 | 69 | 18 | 2.6 | 5.2 | 0.00 | 0.00 | 0.00 | 31 | 1010.1 |
| 20260506154035 | 68 | 248 | 1.7 | 6.1 | 0.00 | 0.00 | 0.00 | 31 | 1010.2 |
| 20260506153015 | 68 | 323 | 2.6 | 4.3 | 0.00 | 0.00 | 0.00 | 31 | 1010.3 |
| 20260506152015 | 68 | 350 | 1.7 | 5.2 | 0.00 | 0.00 | 0.00 | 32 | 1010.4 |
| 20260506151015 | 67 | 34 | 2.6 | 4.3 | 0.00 | 0.00 | 0.00 | 32 | 1010.6 |
| 20260506150015 | 67 | 273 | 0.9 | 3.5 | 0.00 | 0.00 | 0.00 | 34 | 1010.7 |
| 20260506145015 | 65 | 156 | 0.9 | 3.5 | 0.00 | 0.00 | 0.00 | 36 | 1010.7 |
| 20260506144015 | 65 | 119 | 0.9 | 2.6 | 0.00 | 0.00 | 0.00 | 36 | 1011.0 |
| 20260506143015 | 65 | 202 | 1.7 | 3.5 | 0.00 | 0.00 | 0.00 | 37 | 1011.2 |
| 20260506142015 | 66 | 33 | 1.7 | 6.1 | 0.00 | 0.00 | 0.00 | 36 | 1011.3 |
| 20260506141015 | 67 | 84 | 1.7 | 9.6 | 0.00 | 0.00 | 0.00 | 35 | 1011.5 |
| 20260506140015 | 68 | 61 | 3.5 | 7.8 | 0.00 | 0.00 | 0.00 | 34 | 1011.7 |
| 20260506135015 | 67 | 49 | 1.7 | 7.0 | 0.00 | 0.00 | 0.00 | 35 | 1011.7 |
| 20260506134015 | 66 | 43 | 0.9 | 6.1 | 0.00 | 0.00 | 0.00 | 36 | 1011.7 |
| 20260506133015 | 65 | 125 | 2.6 | 7.8 | 0.00 | 0.00 | 0.00 | 37 | 1011.8 |
| 20260506132015 | 67 | 222 | 2.6 | 6.1 | 0.00 | 0.00 | 0.00 | 36 | 1011.9 |
| 20260506131035 | 66 | 103 | 2.6 | 5.2 | 0.00 | 0.00 | 0.00 | 37 | 1012.0 |
| 20260506130015 | 65 | 111 | 5.2 | 8.7 | 0.00 | 0.00 | 0.00 | 38 | 1012.2 |
| 20260506125035 | 65 | 74 | 3.5 | 6.1 | 0.00 | 0.00 | 0.00 | 40 | 1012.2 |
| 20260506124015 | 64 | 39 | 3.5 | 6.1 | 0.00 | 0.00 | 0.00 | 40 | 1012.4 |
| 20260506123015 | 64 | 339 | 1.7 | 10.4 | 0.00 | 0.00 | 0.00 | 40 | 1012.4 |
| 20260506122016 | 64 | 263 | 1.7 | 5.2 | 0.00 | 0.00 | 0.00 | 40 | 1012.5 |
| 20260506121015 | 64 | 57 | 2.6 | 6.1 | 0.00 | 0.00 | 0.00 | 40 | 1012.6 |
| 20260506120015 | 64 | 56 | 4.3 | 9.6 | 0.00 | 0.00 | 0.00 | 41 | 1012.8 |
| 20260506115015 | 64 | 314 | 2.6 | 7.0 | 0.00 | 0.00 | 0.00 | 41 | 1012.8 |
| 20260506114015 | 63 | 89 | 4.3 | 10.4 | 0.00 | 0.00 | 0.00 | 42 | 1012.9 |
| 20260506113015 | 63 | 83 | 3.5 | 9.6 | 0.00 | 0.00 | 0.00 | 44 | 1013.0 |
| 20260506112015 | 63 | 107 | 3.5 | 8.7 | 0.00 | 0.00 | 0.00 | 45 | 1013.0 |
| 20260506111015 | 62 | 135 | 2.6 | 6.1 | 0.00 | 0.00 | 0.00 | 46 | 1013.1 |
| 20260506110015 | 61 | 119 | 4.3 | 8.7 | 0.00 | 0.00 | 0.00 | 46 | 1013.1 |
| 20260506105035 | 62 | 67 | 2.6 | 6.1 | 0.00 | 0.00 | 0.00 | 44 | 1013.2 |
| 20260506104055 | 62 | 88 | 2.6 | 7.0 | 0.00 | 0.00 | 0.00 | 46 | 1013.3 |
| 20260506103015 | 60 | 58 | 1.7 | 7.0 | 0.00 | 0.00 | 0.00 | 48 | 1013.2 |
| 20260506102015 | 61 | 91 | 2.6 | 7.0 | 0.00 | 0.00 | 0.00 | 49 | 1013.3 |
| 20260506101015 | 60 | 2 | 2.6 | 8.7 | 0.00 | 0.00 | 0.00 | 49 | 1013.5 |
| 20260506100015 | 60 | 79 | 1.7 | 7.0 | 0.00 | 0.00 | 0.00 | 49 | 1013.6 |
| 20260506095015 | 59 | 79 | 3.5 | 8.7 | 0.00 | 0.00 | 0.00 | 52 | 1013.6 |
| 20260506094015 | 59 | 79 | 2.6 | 7.0 | 0.00 | 0.00 | 0.00 | 50 | 1013.5 |
| 20260506093015 | 59 | 44 | 3.5 | 7.8 | 0.00 | 0.00 | 0.00 | 55 | 1013.5 |
| 20260506092015 | 58 | 126 | 2.6 | 7.0 | 0.00 | 0.00 | 0.00 | 58 | 1013.6 |
| 20260506091015 | 57 | 45 | 3.5 | 8.7 | 0.00 | 0.00 | 0.00 | 60 | 1013.6 |
| 20260506090015 | 56 | 65 | 2.6 | 7.8 | 0.00 | 0.00 | 0.00 | 61 | 1013.5 |
| 20260506085015 | 55 | 35 | 3.5 | 7.0 | 0.00 | 0.00 | 0.00 | 63 | 1013.6 |
| 20260506084015 | 54 | 53 | 3.5 | 7.0 | 0.00 | 0.00 | 0.00 | 64 | 1013.6 |
| 20260506083015 | 53 | 59 | 2.6 | 6.1 | 0.00 | 0.00 | 0.00 | 66 | 1013.6 |
| 20260506082015 | 53 | 82 | 3.5 | 7.8 | 0.00 | 0.00 | 0.00 | 67 | 1013.5 |
| 20260506081015 | 52 | 50 | 2.6 | 8.7 | 0.00 | 0.00 | 0.00 | 68 | 1013.4 |
| 20260506073015 | 50 | 49 | 2.6 | 6.1 | 0.00 | 0.00 | 0.00 | 71 | 1013.4 |
| 20260506072015 | 50 | 35 | 3.5 | 5.2 | 0.00 | 0.00 | 0.00 | 72 | 1013.4 |
| 20260506071056 | 50 | 57 | 3.5 | 5.2 | 0.00 | 0.00 | 0.00 | 72 | 1013.4 |
| 20260506062035 | 46 | 56 | 2.6 | 6.1 | 0.00 | 0.00 | 0.00 | 79 | 1012.9 |
| 20260506061015 | 46 | 58 | 2.6 | 6.1 | 0.00 | 0.00 | 0.00 | 79 | 1012.8 |
| 20260506051015 | 45 | 46 | 3.5 | 6.1 | 0.00 | 0.00 | 0.00 | 81 | 1012.4 |
| 20260506045016 | 45 | 43 | 2.6 | 5.2 | 0.00 | 0.00 | 0.00 | 80 | 1012.2 |
| 20260506044016 | 45 | 46 | 3.5 | 5.2 | 0.00 | 0.00 | 0.00 | 80 | 1012.1 |
| 20260506043035 | 46 | 51 | 2.6 | 6.1 | 0.00 | 0.00 | 0.00 | 80 | 1012.2 |
| 20260506042016 | 46 | 49 | 3.5 | 6.1 | 0.00 | 0.00 | 0.00 | 79 | 1012.3 |
| 20260506041015 | 46 | 51 | 4.3 | 7.8 | 0.00 | 0.00 | 0.00 | 78 | 1012.3 |
| 20260506040015 | 46 | 69 | 2.6 | 6.1 | 0.00 | 0.00 | 0.00 | 78 | 1012.4 |
| 20260506035016 | 46 | 47 | 3.5 | 6.1 | 0.00 | 0.00 | 0.00 | 77 | 1012.4 |
| 20260506034016 | 46 | 53 | 3.5 | 6.1 | 0.00 | 0.00 | 0.00 | 76 | 1012.5 |
| 20260506033015 | 47 | 64 | 2.6 | 5.2 | 0.00 | 0.00 | 0.00 | 76 | 1012.6 |
| 20260506032015 | 47 | 50 | 1.7 | 6.1 | 0.00 | 0.00 | 0.00 | 75 | 1012.6 |
| 20260506031016 | 47 | 44 | 3.5 | 7.8 | 0.00 | 0.00 | 0.00 | 75 | 1012.6 |
| 20260506030016 | 47 | 53 | 2.6 | 6.1 | 0.00 | 0.00 | 0.00 | 73 | 1012.5 |
| 20260506025016 | 48 | 55 | 1.7 | 4.3 | 0.00 | 0.00 | 0.00 | 72 | 1012.6 |
| 20260506024016 | 48 | 65 | 1.7 | 4.3 | 0.00 | 0.00 | 0.00 | 72 | 1012.5 |
| 20260506023016 | 49 | 43 | 3.5 | 5.2 | 0.00 | 0.00 | 0.00 | 71 | 1012.5 |
| 20260506022016 | 49 | 55 | 1.7 | 6.1 | 0.00 | 0.00 | 0.00 | 69 | 1012.7 |
| 20260506021016 | 49 | 73 | 2.6 | 5.2 | 0.00 | 0.00 | 0.00 | 69 | 1012.7 |
| 20260506020015 | 49 | 75 | 2.6 | 5.2 | 0.00 | 0.00 | 0.00 | 69 | 1012.7 |
| 20260506015035 | 50 | 47 | 2.6 | 4.3 | 0.00 | 0.00 | 0.00 | 68 | 1012.9 |
| 20260506014016 | 50 | 46 | 1.7 | 2.6 | 0.00 | 0.00 | 0.00 | 67 | 1012.8 |
| 20260506013016 | 50 | 39 | 1.7 | 2.6 | 0.00 | 0.00 | 0.00 | 66 | 1012.8 |
| 20260506012016 | 50 | 0.0 | 0.0 | 0.00 | 0.00 | 0.00 | 66 | 1012.8 | |
| 20260506011015 | 50 | 0.0 | 0.9 | 0.00 | 0.00 | 0.00 | 64 | 1012.9 | |
| 20260506010015 | 51 | 38 | 0.9 | 3.5 | 0.00 | 0.00 | 0.00 | 63 | 1013.0 |
| 20260506005016 | 51 | 59 | 1.7 | 3.5 | 0.00 | 0.00 | 0.00 | 63 | 1013.0 |
| 20260506004035 | 51 | 79 | 1.7 | 4.3 | 0.00 | 0.00 | 0.00 | 63 | 1012.9 |